Regional Weather Roundup
Issued by NWS

Home | Current Version | Previous Version | Graphics & Text | Print | Product List | Glossary Off
Versions: 1 2 3 4 5 6 7 8 9 10 11 12 13 14 15 16 17 18 19 20 21 22 23 24 25 26 27 28 29 30 31 32 33 34 35 36 37 38 39 40 41 42 43 44 45 46 47 48 49 50

000
ASUS43 KMKX 251100
RWRWI

WISCONSIN REGIONAL WEATHER ROUNDUP
NATIONAL WEATHER SERVICE MILWAUKEE/SULLIVAN WI
600 AM CDT SUN SEP 25 2016

NOTE: "FAIR" INDICATES FEW OR NO CLOUDS BELOW 12,000 FEET WITH NO
SIGNIFICANT WEATHER AND/OR OBSTRUCTIONS TO VISIBILITY.

WIZ001-002-006>008-014>016-023>028-251200-
NORTHWEST WISCONSIN

CITY           SKY/WX    TMP DP  RH WIND       PRES   REMARKS
SUPERIOR ARPT  CLOUDY    60  60  99 CALM      29.90F
ASHLAND        CLOUDY    62  58  86 S5        29.96F
HAYWARD        CLOUDY    62  59  90 S10       29.96F
SIREN          CLOUDY    65  62  89 SE12      29.91F
CUMBERLAND     CLOUDY    61  61 100 SE9       29.95F FOG
RICE LAKE      CLOUDY    63  60  91 SE9       29.97F FOG
CHETEK         NOT AVBL
LADYSMITH      CLOUDY    62  59  91 S7        30.01S
EAU CLAIRE     NOT AVBL
MENOMONIE      CLOUDY    65  63  91 E8        29.95F
NEW RICHMOND   CLOUDY    65  64  96 SE5       29.93S
OSCEOLA        CLOUDY    65  65 100 SE12      29.94S
$$

WIZ003>005-009-010-017-018-251200-
NORTH CENTRAL WISCONSIN

CITY           SKY/WX    TMP DP  RH WIND       PRES   REMARKS
MANITOWISH WTR NOT AVBL
ARBOR VITAE    CLOUDY    59  55  87 S8G16     30.05F
WOODRUFF       CLOUDY    59  55  87 S8G16     30.05F
RHINELANDER    CLOUDY    59  56  89 SE7       30.06F
EAGLE RIVER    CLOUDY    58  51  78 S8        30.07S
LAND O LAKES   CLOUDY    57  53  85 S8        30.08F
PHILLIPS       CLOUDY    60  58  93 SE7       30.02F
TOMAHAWK       CLOUDY    56  53  89 SE3       30.05F
MEDFORD        CLOUDY    58  58 100 SE7       30.02F
MERRILL        MOCLDY    57  56  94 SE7       30.06F
$$

WIZ029-030-035-036-043>047-251200-
CENTRAL WISCONSIN

CITY           SKY/WX    TMP DP  RH WIND       PRES   REMARKS
WAUSAU         MOCLDY    58  55  90 SE8       30.04F
MOSINEE        NOT AVBL
MARSHFIELD     CLOUDY    60  57  89 SE9       30.02F
STEVENS POINT  MOCLDY    56  56 100 E9        30.06S
WAUPACA        CLOUDY    58  57  98 CALM      30.07F
WAUTOMA        MOCLDY    58  57  97 E5        30.06F
WISC RAPIDS    MOCLDY    59  59 100 SE5       30.04F
CAMP DOUGLAS   CLOUDY    59  59  99 SE8       30.01F
$$

WIZ011>013-019>022-031-037>040-048>050-251200-
NORTHEAST WISCONSIN

CITY           SKY/WX    TMP DP  RH WIND       PRES   REMARKS
ANTIGO         CLOUDY    57  55  94 CALM      30.09F
SHAWANO        PTCLDY    60  56  87 E5        30.09F
OCONTO         NOT AVBL
STURGEON BAY   CLOUDY    62  57  83 SE10      30.12F
GREEN BAY      CLOUDY    61  60  97 SE9       30.09F
MANITOWOC      NOT AVBL
APPLETON       NOT AVBL
CLINTONVILLE   NOT AVBL
OSHKOSH        CLOUDY    63  60  90 SE9       30.07S
$$

WIZ032>034-041-042-053>061-251200-
SOUTHWEST WISCONSIN

CITY           SKY/WX    TMP DP  RH WIND       PRES   REMARKS
LA CROSSE      CLOUDY    69  64  84 S9        29.95F
SPARTA         PTCLDY    64  62  94 SE5       29.99F
VIROQUA        CLOUDY    62  62 100 SE8       30.01F
BOSCOBEL       MOCLDY    64  62  93 N3        30.00F FOG
PRAIRIE DU CHI CLOUDY    65  63  90 CALM      30.00S
PLATTEVILLE    PTCLDY    64  64 100 E3        30.02F
$$

WIZ056-057-062-063-064-067-068-251200-
SOUTH CENTRAL WISCONSIN

CITY           SKY/WX    TMP DP  RH WIND       PRES   REMARKS
REEDSBURG      NOT AVBL
BARABOO/DELLS  PTCLDY    63  61  93 S3        30.04S
LONE ROCK      NOT AVBL
MINERAL POINT  CLEAR     64  64 100 SE9       30.03F
MADISON        CLOUDY    64  62  93 SE6       30.04F
MIDDLETON      CLOUDY    64  64 100 SE3       30.05F
WATERTOWN      PTCLDY    63  63 100 E5        30.07S
MONROE         MOCLDY    63  63 100 SE9       30.05F FOG
JANESVILLE     CLOUDY    66  64  94 SE7       30.05F
$$

WIZ051-052-058>065-066-070>072-251200-
SOUTHEAST WISCONSIN

CITY           SKY/WX    TMP DP  RH WIND       PRES   REMARKS
MILWAUKEE      PTCLDY    67  63  87 SE8       30.10S
WAUKESHA       MOCLDY    63  61  94 SE7       30.10S
MILWAUKEE/TIMM CLOUDY    64  59  82 SE5       30.10S
RACINE         PTCLDY    67  62  84 S10       30.11S
BURLINGTON     CLOUDY    60  60  99 SE6       30.08F FOG
KENOSHA        PTCLDY    65  62  90 SE7       30.10S
FOND DU LAC    PTCLDY    64  61  90 SE8       30.07F
SHEBOYGAN      PTCLDY    64  60  87 SE7       30.10S
WEST BEND      CLOUDY    63  61  94 SE6       30.10S
JUNEAU         PTCLDY    63  61  94 SE8       30.08S
$$

LSZ147-162-251200-
LAKE SUPERIOR

STATION/POSITION TIME  TEMP    WIND        PRES    WAVE
                       AIR SEA DIR/SP/G            HT/PER
                 (UTC) (F)     (DEG/KT/KT) (MB)    (FT/S)
W MID LAKE BUOY  0950   62 60  150/ 14/ 16 1015.1F   3/ 4
DEVILS ISLAND    1000   62     140/  6/  7 1015.1F
SAXON HARBOR     1000   63     170/  3/  8 1014.9
$$

LMZ867-665-643>646-251200-
LAKE MICHIGAN

STATION/POSITION TIME  TEMP    WIND        PRES    WAVE
                       AIR SEA DIR/SP/G            HT/PER
                 (UTC) (F)     (DEG/KT/KT) (MB)    (FT/S)
CHAMBERS ISLAND  1000   63     130/  4/ 10 1020.0S
S GREEN BAY BUOY 1000   63 66  140/ 10/ 14 1019.1F
N MID LAKE BUOY  0950   62 67  170/ 17/ 19 1020.3F   3/ 4
NORTHPORT PIER   1000   63     150/ 11/ 16 1020.7R
SISTER BAY       0938   62     160/ 11/ 14   N/A
KEWAUNEE LAKESHO 1000   64     160/ 15/ 17 1019.5F
SHEBOYGAN LAKESH 1000   64     150/ 14/ 15 1019.0F
PORT WASHINGTON  1000   62      CALM  /  1 1020.0
ATWATER BUOY     1000   65 62  140/  8/ 12 1019.1F
MILWAUKEE LAKESH 1010   64     160/  4/  5   N/A
S MID LAKE BUOY  0950   67 72  140/ 17/ 21 1019.4R   3/ 4
KENOSHA   LAKESH 1000   66     160/ 15/ 16 1018.6F
$$

TC  - TEMPERATURE IN CELSIUS
VSB - VISIBILITY IN STATUTE MILES
WCI - WIND CHILL INDEX
HX  - HEAT INDEX





USA.gov is the U.S. government's official web portal to all federal, state and local government web resources and services.